Torna al catalogo

LES 8

AttivoMilitareGEO
NORAD 8746·PAYLOAD·🇺🇸 United States

Lanciato Mar 15, 1976 da Cape Canaveral Space Force Station

Loading…

TLE

AggiornatoSource: Space-Track

Epoca: Sep 14, 2026, 10:35 UTC

1 08746U 76023A   26257.44145763 -.00000105  00000-0  00000-0 0  9996
2 08746  22.5530  35.8849 0032484 161.9793 207.8633  1.00268497130581

Traccia LES 8 in tempo reale con AllMySat

Download on the App Store